TimeMST,TemperatureF,Dew PointF,Humidity,Sea Level PressureIn,VisibilityMPH,Wind Direction,Wind SpeedMPH,Gust SpeedMPH,PrecipitationIn,Events,Conditions,WindDirDegrees,DateUTC
12:15 AM,69.8,53.6,56,30.15,10.0,NNE,4.6,-,N/A,,Partly Cloudy,30,2013-08-28 07:15:00
12:35 AM,69.8,53.6,56,30.15,10.0,ENE,4.6,-,N/A,,Clear,70,2013-08-28 07:35:00
12:55 AM,69.8,53.6,56,30.15,10.0,Calm,Calm,-,N/A,,Clear,0,2013-08-28 07:55:00
1:15 AM,69.8,53.6,56,30.15,10.0,Calm,Calm,-,N/A,,Clear,0,2013-08-28 08:15:00
1:35 AM,69.8,53.6,56,30.15,10.0,Calm,Calm,-,N/A,,Clear,0,2013-08-28 08:35:00
1:55 AM,69.8,53.6,56,30.15,10.0,East,3.5,-,N/A,,Clear,100,2013-08-28 08:55:00
2:15 AM,68.0,53.6,60,30.15,10.0,NE,5.8,-,N/A,,Clear,50,2013-08-28 09:15:00
2:35 AM,69.8,53.6,56,30.14,10.0,NE,3.5,-,N/A,,Clear,50,2013-08-28 09:35:00
2:55 AM,69.8,55.4,60,30.14,10.0,NE,3.5,-,N/A,,Clear,50,2013-08-28 09:55:00
3:15 AM,69.8,55.4,60,30.14,10.0,Calm,Calm,-,N/A,,Clear,0,2013-08-28 10:15:00
3:35 AM,69.8,55.4,60,30.14,10.0,NE,3.5,-,N/A,,Clear,50,2013-08-28 10:35:00
3:55 AM,68.0,55.4,64,30.14,10.0,Calm,Calm,-,N/A,,Clear,0,2013-08-28 10:55:00
4:15 AM,68.0,55.4,64,30.15,10.0,NE,3.5,-,N/A,,Clear,50,2013-08-28 11:15:00
4:35 AM,68.0,55.4,64,30.15,10.0,NE,4.6,-,N/A,,Clear,50,2013-08-28 11:35:00
4:55 AM,66.2,53.6,64,30.15,10.0,Calm,Calm,-,N/A,,Clear,0,2013-08-28 11:55:00
5:15 AM,66.2,55.4,68,30.15,10.0,Calm,Calm,-,N/A,,Clear,0,2013-08-28 12:15:00
5:35 AM,66.2,53.6,64,30.16,10.0,Calm,Calm,-,N/A,,Clear,0,2013-08-28 12:35:00
5:55 AM,66.2,53.6,64,30.17,10.0,Calm,Calm,-,N/A,,Clear,0,2013-08-28 12:55:00
6:15 AM,68.0,53.6,60,30.18,10.0,ENE,4.6,-,N/A,,Partly Cloudy,60,2013-08-28 13:15:00
6:35 AM,68.0,53.6,60,30.19,10.0,Calm,Calm,-,N/A,,Partly Cloudy,0,2013-08-28 13:35:00
6:55 AM,69.8,53.6,56,30.19,10.0,NE,4.6,-,N/A,,Clear,50,2013-08-28 13:55:00
7:15 AM,73.4,53.6,50,30.19,10.0,ENE,4.6,-,N/A,,Scattered Clouds,60,2013-08-28 14:15:00
7:35 AM,75.2,53.6,47,30.20,10.0,ENE,4.6,-,N/A,,Partly Cloudy,70,2013-08-28 14:35:00
7:55 AM,75.2,53.6,47,30.20,10.0,Variable,5.8,-,N/A,,Partly Cloudy,0,2013-08-28 14:55:00
8:15 AM,77.0,53.6,44,30.20,10.0,Variable,5.8,-,N/A,,Partly Cloudy,0,2013-08-28 15:15:00
8:35 AM,77.0,53.6,44,30.21,10.0,Variable,5.8,-,N/A,,Clear,0,2013-08-28 15:35:00
8:55 AM,78.8,53.6,42,30.21,10.0,Variable,6.9,15.0,N/A,,Clear,0,2013-08-28 15:55:00
9:15 AM,78.8,55.4,44,30.21,10.0,Variable,6.9,15.0,N/A,,Clear,0,2013-08-28 16:15:00
9:35 AM,80.6,55.4,42,30.21,10.0,East,8.1,13.8,N/A,,Clear,100,2013-08-28 16:35:00
9:55 AM,80.6,53.6,39,30.21,10.0,Variable,5.8,13.8,N/A,,Clear,0,2013-08-28 16:55:00
10:15 AM,80.6,53.6,39,30.21,10.0,ESE,8.1,16.1,N/A,,Clear,120,2013-08-28 17:15:00
10:35 AM,82.4,55.4,39,30.20,10.0,Variable,5.8,16.1,N/A,,Clear,0,2013-08-28 17:35:00
10:55 AM,82.4,53.6,37,30.20,10.0,Variable,5.8,15.0,N/A,,Clear,0,2013-08-28 17:55:00
11:15 AM,84.2,53.6,35,30.20,10.0,SE,8.1,15.0,N/A,,Clear,130,2013-08-28 18:15:00
11:35 AM,86.0,53.6,33,30.19,10.0,SE,9.2,-,N/A,,Clear,140,2013-08-28 18:35:00
11:55 AM,86.0,50.0,29,30.18,10.0,Variable,6.9,15.0,N/A,,Clear,0,2013-08-28 18:55:00
12:15 PM,86.0,50.0,29,30.18,10.0,Variable,4.6,15.0,N/A,,Clear,0,2013-08-28 19:15:00
12:35 PM,86.0,51.8,31,30.17,10.0,Variable,5.8,15.0,N/A,,Clear,0,2013-08-28 19:35:00
12:55 PM,87.8,51.8,29,30.16,10.0,East,9.2,-,N/A,,Clear,90,2013-08-28 19:55:00
1:15 PM,86.0,50.0,29,30.16,10.0,Variable,6.9,16.1,N/A,,Partly Cloudy,0,2013-08-28 20:15:00
1:35 PM,84.2,50.0,30,30.16,10.0,Variable,3.5,-,N/A,,Partly Cloudy,0,2013-08-28 20:35:00
1:55 PM,84.2,51.8,33,30.15,10.0,NNE,8.1,17.3,N/A,,Scattered Clouds,20,2013-08-28 20:55:00
2:15 PM,84.2,53.6,35,30.14,10.0,NNE,11.5,17.3,N/A,,Scattered Clouds,30,2013-08-28 21:15:00
2:35 PM,84.2,53.6,35,30.14,10.0,NNE,12.7,-,N/A,Thunderstorm,Mostly Cloudy,20,2013-08-28 21:35:00
2:55 PM,82.4,51.8,35,30.13,10.0,NNE,11.5,-,N/A,,Scattered Clouds,30,2013-08-28 21:55:00
3:15 PM,82.4,53.6,37,30.14,10.0,SSE,8.1,-,N/A,,Scattered Clouds,150,2013-08-28 22:15:00
3:35 PM,77.0,57.2,50,30.14,10.0,Variable,3.5,11.5,N/A,,Mostly Cloudy,0,2013-08-28 22:35:00
3:55 PM,75.2,60.8,61,30.15,10.0,Variable,4.6,-,N/A,,Mostly Cloudy,0,2013-08-28 22:55:00
4:15 PM,73.4,60.8,65,30.16,10.0,East,4.6,-,N/A,Thunderstorm,Drizzle,80,2013-08-28 23:15:00
4:35 PM,77.0,57.2,50,30.15,10.0,NE,3.5,-,N/A,,Overcast,50,2013-08-28 23:35:00
4:55 PM,75.2,59.0,57,30.15,10.0,NNE,10.4,-,N/A,,Scattered Clouds,30,2013-08-28 23:55:00
5:15 PM,75.2,59.0,57,30.15,10.0,NNE,8.1,-,N/A,,Clear,30,2013-08-29 00:15:00
5:35 PM,75.2,59.0,57,30.15,10.0,NNE,6.9,-,N/A,,Scattered Clouds,30,2013-08-29 00:35:00
5:55 PM,77.0,59.0,54,30.15,10.0,NE,6.9,-,N/A,,Mostly Cloudy,40,2013-08-29 00:55:00
6:15 PM,77.0,57.2,50,30.16,10.0,NE,8.1,-,N/A,,Overcast,40,2013-08-29 01:15:00
6:35 PM,77.0,57.2,50,30.17,10.0,NE,6.9,-,N/A,,Overcast,40,2013-08-29 01:35:00
6:55 PM,77.0,57.2,50,30.17,10.0,NE,6.9,-,N/A,,Mostly Cloudy,40,2013-08-29 01:55:00
7:15 PM,77.0,57.2,50,30.17,10.0,NE,4.6,-,N/A,,Mostly Cloudy,40,2013-08-29 02:15:00
7:35 PM,77.0,57.2,50,30.18,10.0,NNE,4.6,-,N/A,,Overcast,30,2013-08-29 02:35:00
7:55 PM,75.2,57.2,53,30.19,10.0,NE,4.6,-,N/A,,Overcast,50,2013-08-29 02:55:00
8:15 PM,75.2,57.2,53,30.21,10.0,South,4.6,17.3,N/A,,Mostly Cloudy,180,2013-08-29 03:15:00
8:35 PM,73.4,57.2,57,30.22,10.0,South,4.6,12.7,N/A,,Partly Cloudy,180,2013-08-29 03:35:00
8:55 PM,73.4,57.2,57,30.22,10.0,Calm,Calm,-,N/A,,Clear,0,2013-08-29 03:55:00
9:15 PM,73.4,57.2,57,30.23,10.0,Calm,Calm,-,N/A,,Clear,0,2013-08-29 04:15:00
9:35 PM,71.6,57.2,60,30.24,10.0,East,3.5,-,N/A,,Clear,100,2013-08-29 04:35:00
9:55 PM,71.6,57.2,60,30.24,10.0,East,5.8,-,N/A,,Clear,100,2013-08-29 04:55:00
10:15 PM,71.6,57.2,60,30.24,10.0,East,3.5,-,N/A,,Clear,100,2013-08-29 05:15:00
10:35 PM,71.6,57.2,60,30.25,10.0,Calm,Calm,-,N/A,,Partly Cloudy,0,2013-08-29 05:35:00
10:55 PM,69.8,57.2,64,30.25,10.0,Calm,Calm,-,N/A,,Clear,0,2013-08-29 05:55:00
11:15 PM,73.4,57.2,57,30.25,10.0,SSE,4.6,-,N/A,,Clear,150,2013-08-29 06:15:00
11:35 PM,71.6,57.2,60,30.25,10.0,Variable,3.5,-,N/A,,Clear,0,2013-08-29 06:35:00
11:55 PM,71.6,57.2,60,30.25,10.0,Calm,Calm,-,N/A,,Clear,0,2013-08-29 06:55:00